TimeMDT,TemperatureF,Dew PointF,Humidity,Sea Level PressureIn,VisibilityMPH,Wind Direction,Wind SpeedMPH,Gust SpeedMPH,PrecipitationIn,Events,Conditions,WindDirDegrees,DateUTC
12:15 AM,26.6,21.2,80,29.97,10.0,NW,12.7,-,N/A,,Clear,320,2012-10-24 06:15:00
12:35 AM,26.6,19.4,74,29.97,10.0,NW,12.7,-,N/A,,Clear,320,2012-10-24 06:35:00
12:55 AM,26.6,19.4,74,29.97,10.0,NW,13.8,-,N/A,,Clear,310,2012-10-24 06:55:00
1:15 AM,26.6,19.4,74,29.97,10.0,NW,13.8,-,N/A,,Clear,310,2012-10-24 07:15:00
1:35 AM,24.8,19.4,80,29.97,10.0,NW,12.7,-,N/A,,Clear,320,2012-10-24 07:35:00
1:55 AM,24.8,17.6,74,29.97,10.0,NW,11.5,-,N/A,,Clear,310,2012-10-24 07:55:00
2:15 AM,24.8,17.6,74,29.97,10.0,NW,12.7,-,N/A,,Clear,320,2012-10-24 08:15:00
2:35 AM,24.8,17.6,74,29.98,10.0,NW,10.4,-,N/A,,Clear,320,2012-10-24 08:35:00
2:55 AM,23.0,17.6,80,29.98,10.0,NNW,13.8,-,N/A,,Clear,330,2012-10-24 08:55:00
3:15 AM,23.0,17.6,80,29.98,10.0,NNW,10.4,-,N/A,,Clear,340,2012-10-24 09:15:00
3:35 AM,23.0,17.6,80,29.98,10.0,NW,13.8,-,N/A,,Clear,320,2012-10-24 09:35:00
3:55 AM,23.0,17.6,80,29.98,10.0,NW,12.7,-,N/A,,Clear,320,2012-10-24 09:55:00
4:15 AM,23.0,15.8,74,29.98,10.0,NW,12.7,-,N/A,,Clear,320,2012-10-24 10:15:00
4:35 AM,21.2,15.8,80,29.98,10.0,NW,12.7,-,N/A,,Clear,320,2012-10-24 10:35:00
5:15 AM,21.2,14.0,74,30.00,10.0,NW,13.8,-,N/A,,Clear,320,2012-10-24 11:15:00
5:35 AM,21.2,14.0,74,30.00,10.0,NW,11.5,-,N/A,,Clear,320,2012-10-24 11:35:00
5:55 AM,21.2,15.8,80,30.00,10.0,NW,11.5,-,N/A,,Clear,320,2012-10-24 11:55:00
6:15 AM,21.2,14.0,74,30.00,10.0,NW,11.5,-,N/A,,Clear,320,2012-10-24 12:15:00
6:35 AM,21.2,14.0,74,30.00,10.0,NW,10.4,-,N/A,,Clear,310,2012-10-24 12:35:00
6:47 AM,19.4,-9999,N/A,30.01,10.0,NW,9.2,-,N/A,,Clear,310,2012-10-24 12:47:00
6:55 AM,21.2,14.0,74,30.01,10.0,NNW,10.4,-,N/A,,Clear,340,2012-10-24 12:55:00
7:47 AM,19.4,12.2,74,30.02,10.0,WNW,9.2,-,N/A,,Partly Cloudy,290,2012-10-24 13:47:00
8:50 AM,19.4,12.2,74,30.03,10.0,NW,13.8,-,N/A,,Partly Cloudy,310,2012-10-24 14:50:00
9:47 AM,21.2,14.0,74,30.02,10.0,NW,13.8,-,N/A,,Partly Cloudy,310,2012-10-24 15:47:00
10:47 AM,26.6,15.8,64,30.01,10.0,NW,13.8,-,N/A,,Partly Cloudy,320,2012-10-24 16:47:00
11:47 AM,30.2,17.6,60,30.01,10.0,NW,9.2,-,N/A,,Scattered Clouds,310,2012-10-24 17:47:00
12:52 PM,35.6,19.4,52,30.00,10.0,WNW,4.6,-,N/A,,Mostly Cloudy,300,2012-10-24 18:52:00
1:47 PM,35.6,19.4,52,30.00,10.0,Calm,Calm,-,N/A,,Mostly Cloudy,0,2012-10-24 19:47:00
3:55 PM,37.4,17.6,45,29.99,10.0,Calm,Calm,-,N/A,,Overcast,0,2012-10-24 21:55:00
4:50 PM,37.4,17.6,45,30.00,10.0,Calm,Calm,-,N/A,,Overcast,0,2012-10-24 22:50:00
5:47 PM,37.4,17.6,45,30.00,10.0,Calm,Calm,-,N/A,,Mostly Cloudy,0,2012-10-24 23:47:00
7:47 PM,33.8,21.2,60,30.02,10.0,Calm,Calm,-,N/A,,Mostly Cloudy,0,2012-10-25 01:47:00
8:47 PM,33.8,23.0,65,30.04,10.0,West,4.6,-,N/A,,Overcast,280,2012-10-25 02:47:00
9:47 PM,33.8,24.8,70,30.04,10.0,WNW,4.6,-,N/A,,Overcast,300,2012-10-25 03:47:00
10:47 PM,32.0,28.4,87,30.06,3.0,North,4.6,-,N/A,Snow,Light Snow,350,2012-10-25 04:47:00
11:15 PM,32.0,30.2,93,30.06,4.0,Calm,Calm,-,N/A,Snow,Light Snow,0,2012-10-25 05:15:00
11:35 PM,32.0,30.2,93,30.06,2.5,NW,4.6,-,N/A,Snow,Light Snow,320,2012-10-25 05:35:00
11:55 PM,32.0,30.2,93,30.07,10.0,NNW,5.8,-,N/A,,Overcast,340,2012-10-25 05:55:00